| time (UTC) | temp C | wind direction | speed KPH | gust KPH | rain 1hr cm | rain 24hr cm | rain mn cm | humidity % | barometer mb |
| 20260507085041 | 9 | 335 | 1.6 | 6.4 | 0.03 | 0.76 | 0.03 | 91 | 1006.5 |
| 20260507084059 | 9 | 348 | 3.2 | 8.0 | 0.03 | 0.74 | 0.03 | 90 | 1006.3 |
| 20260507083018 | 10 | 328 | 3.2 | 6.4 | 0.00 | 0.74 | 0.00 | 90 | 1006.6 |
| 20260507082018 | 10 | 314 | 3.2 | 9.7 | 0.00 | 0.74 | 0.00 | 90 | 1006.6 |
| 20260507081018 | 10 | 306 | 3.2 | 6.4 | 0.00 | 0.74 | 0.00 | 90 | 1006.3 |
| 20260507080018 | 10 | 321 | 1.6 | 4.8 | 0.00 | 0.74 | 0.00 | 91 | 1006.2 |
| 20260507075039 | 10 | 302 | 3.2 | 8.0 | 0.00 | 0.74 | 0.00 | 90 | 1006.0 |
| 20260507074019 | 10 | 312 | 3.2 | 8.0 | 0.00 | 0.74 | 0.00 | 90 | 1005.9 |
| 20260507073019 | 10 | 318 | 3.2 | 9.7 | 0.00 | 0.74 | 0.00 | 89 | 1006.0 |
| 20260507072039 | 10 | 296 | 4.8 | 9.7 | 0.00 | 0.74 | 0.00 | 89 | 1006.0 |
| 20260507071019 | 10 | 290 | 6.4 | 12.9 | 0.00 | 0.74 | 0.00 | 90 | 1005.8 |
| 20260507070019 | 10 | 291 | 4.8 | 12.9 | 0.00 | 0.74 | 0.00 | 94 | 1005.5 |
| 20260507065020 | 10 | 291 | 3.2 | 8.0 | 0.00 | 0.74 | 0.00 | 95 | 1005.5 |
| 20260507064017 | 10 | 288 | 4.8 | 9.7 | 0.00 | 0.74 | 0.00 | 95 | 1005.4 |
| 20260507063020 | 11 | 282 | 3.2 | 8.0 | 0.00 | 0.74 | 0.00 | 94 | 1005.6 |
| 20260507062020 | 11 | 277 | 3.2 | 4.8 | 0.00 | 0.74 | 0.00 | 92 | 1005.5 |
| 20260507061020 | 11 | 277 | 3.2 | 8.0 | 0.00 | 0.74 | 0.00 | 90 | 1005.5 |
| 20260507060020 | 11 | 285 | 6.4 | 12.9 | 0.00 | 0.74 | 0.00 | 90 | 1005.3 |
| 20260507055018 | 11 | 278 | 6.4 | 12.9 | 0.00 | 0.74 | 0.00 | 91 | 1005.4 |
| 20260507054018 | 11 | 285 | 6.4 | 11.3 | 0.00 | 0.74 | 0.00 | 91 | 1005.1 |
| 20260507053018 | 11 | 290 | 4.8 | 12.9 | 0.00 | 0.74 | 0.00 | 94 | 1005.0 |
| 20260507052019 | 12 | 264 | 4.8 | 9.7 | 0.00 | 0.74 | 0.00 | 94 | 1005.2 |
| 20260507051041 | 12 | 277 | 6.4 | 11.3 | 0.00 | 0.74 | 0.00 | 93 | 1005.2 |
| 20260507050018 | 12 | 272 | 4.8 | 8.0 | 0.00 | 0.74 | 0.00 | 93 | 1005.0 |
| 20260507045018 | 12 | 272 | 6.4 | 12.9 | 0.00 | 0.74 | 0.00 | 92 | 1005.0 |
| 20260507044019 | 12 | 266 | 8.0 | 17.7 | 0.00 | 0.74 | 0.00 | 94 | 1005.1 |
| 20260507043019 | 12 | 271 | 6.4 | 12.9 | 0.00 | 0.74 | 0.00 | 98 | 1005.1 |
| 20260507042019 | 12 | 280 | 4.8 | 11.3 | 0.00 | 0.74 | 0.00 | 99 | 1004.8 |
| 20260507041019 | 12 | 291 | 4.8 | 9.7 | 0.00 | 0.74 | 0.00 | 99 | 1004.7 |
| 20260507040039 | 11 | 299 | 3.2 | 8.0 | 0.00 | 0.74 | 0.00 | 99 | 1004.7 |
| 20260507035100 | 10 | 262 | 1.6 | 8.0 | 0.00 | 0.74 | 0.74 | 99 | 1004.8 |
| 20260507034020 | 9 | 249 | 4.8 | 8.0 | 0.00 | 0.74 | 0.74 | 99 | 1004.9 |
| 20260507033020 | 9 | 241 | 4.8 | 11.3 | 0.00 | 0.74 | 0.74 | 99 | 1004.7 |
| 20260507032020 | 9 | 239 | 4.8 | 9.7 | 0.00 | 0.74 | 0.74 | 99 | 1004.3 |
| 20260507031017 | 9 | 237 | 3.2 | 9.7 | 0.00 | 0.74 | 0.74 | 99 | 1004.3 |
| 20260507030018 | 9 | 228 | 3.2 | 11.3 | 0.00 | 0.74 | 0.74 | 99 | 1004.3 |
| 20260507025018 | 9 | 219 | 3.2 | 9.7 | 0.00 | 0.74 | 0.74 | 99 | 1004.4 |
| 20260507024041 | 9 | 216 | 3.2 | 11.3 | 0.00 | 0.74 | 0.74 | 99 | 1004.5 |
| 20260507023041 | 9 | 225 | 3.2 | 9.7 | 0.00 | 0.74 | 0.74 | 99 | 1004.6 |
| 20260507022038 | 9 | 226 | 3.2 | 9.7 | 0.00 | 0.74 | 0.74 | 99 | 1004.7 |
| 20260507021018 | 9 | 223 | 3.2 | 11.3 | 0.00 | 0.74 | 0.74 | 99 | 1004.9 |
| 20260507020019 | 9 | 222 | 3.2 | 9.7 | 0.00 | 0.74 | 0.74 | 99 | 1005.0 |
| 20260507015019 | 10 | 229 | 3.2 | 9.7 | 0.00 | 0.74 | 0.74 | 99 | 1005.0 |
| 20260507014039 | 10 | 214 | 3.2 | 9.7 | 0.00 | 0.74 | 0.74 | 99 | 1005.1 |
| 20260507013019 | 10 | 211 | 3.2 | 9.7 | 0.00 | 0.74 | 0.74 | 99 | 1005.1 |
| 20260507012019 | 9 | 218 | 3.2 | 14.5 | 0.00 | 0.74 | 0.74 | 99 | 1005.2 |
| 20260507011040 | 9 | 208 | 3.2 | 9.7 | 0.00 | 0.74 | 0.74 | 99 | 1005.3 |
| 20260507010040 | 9 | 223 | 1.6 | 8.0 | 0.03 | 0.74 | 0.74 | 99 | 1005.3 |
| 20260507005020 | 9 | 233 | 1.6 | 6.4 | 0.05 | 0.74 | 0.74 | 99 | 1005.3 |
| 20260507004017 | 9 | 241 | 1.6 | 4.8 | 0.05 | 0.74 | 0.74 | 99 | 1005.3 |
| 20260507003017 | 9 | 237 | 1.6 | 4.8 | 0.05 | 0.74 | 0.74 | 99 | 1005.4 |
| 20260507002020 | 9 | 230 | 3.2 | 8.0 | 0.05 | 0.74 | 0.74 | 99 | 1005.4 |
| 20260507001020 | 9 | 234 | 1.6 | 4.8 | 0.03 | 0.71 | 0.71 | 99 | 1005.3 |
| 20260507000022 | 9 | 236 | 1.6 | 4.8 | 0.03 | 0.71 | 0.71 | 99 | 1005.4 |
| 20260506235020 | 9 | 233 | 3.2 | 6.4 | 0.00 | 0.69 | 0.69 | 99 | 1005.4 |
| 20260506234018 | 9 | 234 | 3.2 | 8.0 | 0.00 | 0.69 | 0.69 | 99 | 1005.4 |
| 20260506233017 | 9 | 224 | 3.2 | 11.3 | 0.03 | 0.69 | 0.69 | 99 | 1005.3 |
| 20260506232039 | 9 | 226 | 3.2 | 6.4 | 0.08 | 0.69 | 0.69 | 99 | 1005.5 |
| 20260506231021 | 9 | 235 | 3.2 | 6.4 | 0.08 | 0.69 | 0.69 | 99 | 1005.5 |
| 20260506230018 | 10 | 225 | 3.2 | 9.7 | 0.10 | 0.69 | 0.69 | 99 | 1005.6 |
| 20260506225019 | 10 | 235 | 4.8 | 11.3 | 0.13 | 0.69 | 0.69 | 99 | 1005.7 |
| 20260506224039 | 10 | 230 | 3.2 | 8.0 | 0.13 | 0.69 | 0.69 | 99 | 1005.7 |
| 20260506223019 | 10 | 236 | 3.2 | 9.7 | 0.13 | 0.66 | 0.66 | 99 | 1005.7 |
| 20260506222019 | 10 | 228 | 3.2 | 14.5 | 0.10 | 0.61 | 0.61 | 99 | 1005.7 |
| 20260506221019 | 10 | 223 | 3.2 | 14.5 | 0.10 | 0.61 | 0.61 | 100 | 1005.9 |
| 20260506220019 | 10 | 225 | 3.2 | 11.3 | 0.13 | 0.58 | 0.58 | 100 | 1006.0 |
| 20260506215020 | 10 | 229 | 3.2 | 8.0 | 0.18 | 0.56 | 0.56 | 100 | 1006.2 |
| 20260506214039 | 9 | 237 | 3.2 | 9.7 | 0.20 | 0.56 | 0.56 | 100 | 1006.4 |
| 20260506213019 | 10 | 230 | 3.2 | 9.7 | 0.23 | 0.53 | 0.53 | 99 | 1006.4 |
| 20260506212020 | 10 | 232 | 3.2 | 8.0 | 0.28 | 0.51 | 0.51 | 99 | 1006.5 |
| 20260506211020 | 10 | 228 | 3.2 | 6.4 | 0.33 | 0.51 | 0.51 | 99 | 1006.6 |
| 20260506210041 | 10 | 209 | 3.2 | 9.7 | 0.30 | 0.46 | 0.46 | 98 | 1006.6 |
| 20260506205018 | 10 | 211 | 3.2 | 9.7 | 0.23 | 0.38 | 0.38 | 98 | 1006.7 |
| 20260506204018 | 10 | 215 | 3.2 | 9.7 | 0.23 | 0.36 | 0.36 | 97 | 1006.7 |
| 20260506203021 | 11 | 198 | 3.2 | 9.7 | 0.20 | 0.30 | 0.30 | 97 | 1006.6 |
| 20260506202021 | 11 | 195 | 3.2 | 11.3 | 0.18 | 0.23 | 0.23 | 96 | 1006.5 |
| 20260506201019 | 11 | 231 | 3.2 | 9.7 | 0.13 | 0.18 | 0.18 | 96 | 1006.5 |
| 20260506200018 | 11 | 231 | 3.2 | 8.0 | 0.13 | 0.15 | 0.15 | 96 | 1006.5 |
| 20260506195038 | 11 | 209 | 3.2 | 9.7 | 0.13 | 0.15 | 0.15 | 96 | 1006.8 |
| 20260506194019 | 11 | 221 | 3.2 | 14.5 | 0.10 | 0.13 | 0.13 | 96 | 1007.2 |
| 20260506193019 | 11 | 238 | 3.2 | 12.9 | 0.10 | 0.10 | 0.10 | 95 | 1007.2 |
| 20260506192019 | 10 | 238 | 6.4 | 14.5 | 0.08 | 0.08 | 0.08 | 95 | 1007.4 |
| 20260506191019 | 10 | 249 | 6.4 | 11.3 | 0.05 | 0.05 | 0.05 | 95 | 1007.2 |
| 20260506190020 | 10 | 243 | 4.8 | 9.7 | 0.05 | 0.05 | 0.05 | 94 | 1006.9 |
| 20260506185020 | 10 | 246 | 6.4 | 14.5 | 0.03 | 0.03 | 0.03 | 93 | 1007.0 |
| 20260506184020 | 11 | 232 | 4.8 | 11.3 | 0.03 | 0.03 | 0.03 | 92 | 1006.9 |
| 20260506183020 | 11 | 231 | 6.4 | 12.9 | 0.00 | 0.00 | 0.00 | 91 | 1006.9 |
| 20260506182020 | 11 | 231 | 4.8 | 9.7 | 0.00 | 0.00 | 0.00 | 91 | 1007.0 |
| 20260506181020 | 11 | 239 | 3.2 | 11.3 | 0.00 | 0.00 | 0.00 | 90 | 1007.1 |
| 20260506180017 | 11 | 240 | 4.8 | 9.7 | 0.00 | 0.00 | 0.00 | 90 | 1007.2 |
| 20260506175021 | 11 | 228 | 3.2 | 9.7 | 0.00 | 0.00 | 0.00 | 90 | 1007.3 |
| 20260506174041 | 11 | 234 | 4.8 | 9.7 | 0.00 | 0.00 | 0.00 | 90 | 1007.4 |
| 20260506173021 | 11 | 239 | 4.8 | 9.7 | 0.00 | 0.00 | 0.00 | 90 | 1007.5 |
| 20260506172018 | 11 | 247 | 4.8 | 9.7 | 0.00 | 0.00 | 0.00 | 90 | 1007.6 |
| 20260506171018 | 11 | 239 | 3.2 | 11.3 | 0.00 | 0.00 | 0.00 | 90 | 1007.7 |
| 20260506170018 | 11 | 234 | 3.2 | 6.4 | 0.00 | 0.00 | 0.00 | 89 | 1007.9 |
| 20260506165059 | 11 | 258 | 1.6 | 4.8 | 0.00 | 0.00 | 0.00 | 89 | 1008.0 |
| 20260506164039 | 11 | 230 | 3.2 | 8.0 | 0.00 | 0.00 | 0.00 | 89 | 1008.2 |
| 20260506163039 | 11 | 211 | 1.6 | 8.0 | 0.00 | 0.00 | 0.00 | 90 | 1008.4 |
| 20260506162019 | 11 | 234 | 3.2 | 6.4 | 0.00 | 0.00 | 0.00 | 90 | 1008.6 |
| 20260506161019 | 11 | 238 | 3.2 | 9.7 | 0.00 | 0.00 | 0.00 | 89 | 1008.8 |
| 20260506160019 | 11 | 229 | 3.2 | 11.3 | 0.00 | 0.00 | 0.00 | 88 | 1009.0 |
| 20260506155019 | 11 | 236 | 3.2 | 12.9 | 0.00 | 0.00 | 0.00 | 89 | 1009.1 |
| 20260506154020 | 11 | 234 | 3.2 | 11.3 | 0.00 | 0.00 | 0.00 | 89 | 1009.1 |
| 20260506153037 | 11 | 215 | 3.2 | 12.9 | 0.00 | 0.00 | 0.00 | 90 | 1009.0 |
| 20260506152017 | 11 | 217 | 4.8 | 9.7 | 0.00 | 0.00 | 0.00 | 90 | 1009.3 |
| 20260506151020 | 11 | 213 | 3.2 | 9.7 | 0.00 | 0.00 | 0.00 | 90 | 1009.1 |
| 20260506150020 | 11 | 210 | 4.8 | 14.5 | 0.00 | 0.00 | 0.00 | 90 | 1009.0 |
| 20260506145020 | 11 | 215 | 4.8 | 14.5 | 0.00 | 0.00 | 0.00 | 89 | 1009.0 |
| 20260506144021 | 12 | 221 | 3.2 | 9.7 | 0.00 | 0.00 | 0.00 | 88 | 1008.9 |
| 20260506143018 | 12 | 230 | 3.2 | 11.3 | 0.00 | 0.00 | 0.00 | 88 | 1008.9 |
| 20260506142021 | 11 | 233 | 3.2 | 9.7 | 0.00 | 0.00 | 0.00 | 90 | 1008.8 |
| 20260506141018 | 11 | 230 | 3.2 | 11.3 | 0.00 | 0.00 | 0.00 | 92 | 1009.0 |
| 20260506140019 | 11 | 211 | 4.8 | 11.3 | 0.00 | 0.00 | 0.00 | 92 | 1009.1 |
| 20260506135018 | 11 | 234 | 3.2 | 9.7 | 0.00 | 0.00 | 0.00 | 92 | 1009.1 |
| 20260506134019 | 11 | 216 | 3.2 | 11.3 | 0.00 | 0.00 | 0.00 | 92 | 1009.1 |
| 20260506133059 | 11 | 233 | 1.6 | 8.0 | 0.00 | 0.00 | 0.00 | 93 | 1009.1 |
| 20260506132019 | 11 | 212 | 4.8 | 9.7 | 0.00 | 0.00 | 0.00 | 92 | 1009.1 |
| 20260506131019 | 11 | 245 | 3.2 | 9.7 | 0.00 | 0.00 | 0.00 | 92 | 1009.1 |
| 20260506130019 | 11 | 243 | 3.2 | 11.3 | 0.00 | 0.00 | 0.00 | 92 | 1009.0 |
| 20260506125039 | 11 | 221 | 3.2 | 8.0 | 0.00 | 0.00 | 0.00 | 92 | 1009.1 |
| 20260506124020 | 11 | 238 | 1.6 | 6.4 | 0.00 | 0.00 | 0.00 | 92 | 1009.2 |
| 20260506123020 | 10 | 243 | 1.6 | 6.4 | 0.00 | 0.00 | 0.00 | 93 | 1009.2 |
| 20260506122020 | 10 | 239 | 1.6 | 4.8 | 0.00 | 0.00 | 0.00 | 94 | 1009.4 |
| 20260506121020 | 10 | 229 | 1.6 | 8.0 | 0.00 | 0.00 | 0.00 | 94 | 1009.5 |
| 20260506120020 | 10 | 234 | 1.6 | 8.0 | 0.00 | 0.00 | 0.00 | 95 | 1009.5 |
| 20260506115020 | 10 | 237 | 3.2 | 8.0 | 0.00 | 0.00 | 0.00 | 95 | 1009.6 |
| 20260506114018 | 10 | 249 | 3.2 | 8.0 | 0.00 | 0.00 | 0.00 | 95 | 1009.5 |
| 20260506113017 | 10 | 240 | 3.2 | 12.9 | 0.00 | 0.00 | 0.00 | 96 | 1009.7 |
| 20260506112021 | 10 | 249 | 3.2 | 9.7 | 0.00 | 0.00 | 0.00 | 96 | 1009.5 |
| 20260506111018 | 10 | 244 | 3.2 | 8.0 | 0.00 | 0.00 | 0.00 | 96 | 1009.6 |
| 20260506110018 | 10 | 240 | 3.2 | 6.4 | 0.00 | 0.00 | 0.00 | 96 | 1009.5 |
| 20260506105018 | 10 | 243 | 3.2 | 6.4 | 0.00 | 0.00 | 0.00 | 96 | 1009.7 |
| 20260506104019 | 10 | 239 | 3.2 | 6.4 | 0.00 | 0.00 | 0.00 | 96 | 1009.6 |
| 20260506103019 | 10 | 242 | 3.2 | 8.0 | 0.00 | 0.00 | 0.00 | 96 | 1009.7 |
| 20260506102039 | 10 | 229 | 3.2 | 6.4 | 0.00 | 0.00 | 0.00 | 96 | 1009.5 |
| 20260506101019 | 9 | 221 | 3.2 | 8.0 | 0.00 | 0.00 | 0.00 | 96 | 1009.4 |
| 20260506100019 | 9 | 239 | 1.6 | 8.0 | 0.00 | 0.00 | 0.00 | 96 | 1009.5 |
| 20260506095019 | 9 | 238 | 3.2 | 6.4 | 0.00 | 0.00 | 0.00 | 96 | 1009.5 |
| 20260506094039 | 9 | 241 | 1.6 | 8.0 | 0.00 | 0.00 | 0.00 | 96 | 1009.4 |
| 20260506093020 | 9 | 236 | 3.2 | 8.0 | 0.00 | 0.00 | 0.00 | 96 | 1009.3 |
| 20260506092020 | 9 | 231 | 3.2 | 8.0 | 0.00 | 0.00 | 0.00 | 95 | 1009.2 |
| 20260506091017 | 10 | 215 | 3.2 | 11.3 | 0.00 | 0.00 | 0.00 | 95 | 1009.2 |
| 20260506090017 | 10 | 237 | 3.2 | 8.0 | 0.00 | 0.00 | 0.00 | 95 | 1009.2 |